Satellite-Ground Cal/Val Site Overpasses Predictions

Prediction of Satellite NPP Overpassing Cal/Val Site: Antarctic Dome C

Ground Cal/Val Site Location: Latitude: -75.10, Longitude: 123.35; Satellite-Ground Site NADIR distance within 100 km.

Table of predicted overpasses for the next 14.0 days since TLE Epoch: 4/24/2015
Interval Starting Time Ending Time Minimum Distance Time Minimum Distance (km)
1 04/24/2015 15:12:33 04/24/2015 15:12:45 04/24/2015 15:12:39 90.21
2 04/25/2015 14:53:33 04/25/2015 14:54:02 04/25/2015 14:53:47 21.07
3 04/27/2015 07:36:19 04/27/2015 07:36:48 04/27/2015 07:36:33 2.51
4 04/30/2015 14:59:39 04/30/2015 15:00:08 04/30/2015 14:59:53 14.81
5 05/01/2015 14:40:57 05/01/2015 14:41:08 05/01/2015 14:41:02 92.12
6 05/02/2015 07:42:25 05/02/2015 07:42:52 05/02/2015 07:42:39 36.65
7 05/03/2015 07:23:38 05/03/2015 07:23:57 05/03/2015 07:23:47 73.72
8 05/05/2015 15:05:47 05/05/2015 15:06:12 05/05/2015 15:05:59 51.26
9 05/06/2015 14:46:55 05/06/2015 14:47:19 05/06/2015 14:47:07 57.82


NCC Satellite Cal/Val Overpasses Prediction Service
